User: anonymous   Login
Location: Platte
(43.3870°N, 98.8440°W)
Time: 19:02:28
(UTC-05:00)
Language:

Landsat 7 - Orbit

View from above orbital plane
View from above orbital plane
View from above satellite
View from above satellite

Ground track
Ground track

The orbit data is extracted from the following two-line orbital elements,

1 25682U 99020A   17147.79958566 -.00000501 +00000-0 -10120-3 0  9993
2 25682 098.2115 219.2429 0001293 073.1842 286.9508 14.57102968963627
Epoch (UTC): 27 May 2017 19:11:24
Eccentricity: 0.0001293
inclination: 98.2115°
perigee height: 701 km
apogee height: 703 km
right ascension of ascending node: 219.2429°
argument of perigee: 73.1842°
revolutions per day: 14.57102968
mean anomaly at epoch: 286.9508°
orbit number at epoch: 96362

The dashed part of the orbit path shows where the satellite is in the earth's shadow,  

DLR